Regional Weather Roundup
Issued by NWS Portland, ME

Current Version | Previous Version | Text Only | Print | Product List | Glossary Off
Versions: 1 2 3 4 5 6 7 8 9 10 11 12 13 14 15 16 17 18 19 20 21 22 23 24 25 26 27 28 29 30 31 32 33 34 35 36 37 38 39 40 41 42 43 44 45 46 47 48 49 50
000 ASUS41 KGYX 231605 RWRGYX WEATHER ROUNDUP FOR MAINE AND NEW HAMPSHIRE NATIONAL WEATHER SERVICE GRAY ME 1200 PM EDT SUN APR 23 2017 MEZ002-005-006-010-012-015-018-020-021-024-026-027-029-231700- MAINE CITY SKY/WX TMP DP RH WIND PRES REMARKS PORTLAND MOSUNNY 55 36 48 VRB3 30.06F SANFORD SUNNY 58 36 43 SW7 30.06F BAR HARBOR CLOUDY 45 37 73 NW7 30.05F WISCASSET MOSUNNY 55 38 52 VRB5 30.06F ROCKLAND CLOUDY 46 40 79 S9 30.06S FRYEBURG SUNNY 57 36 45 NE8 30.05S LEWISTONAUBURN SUNNY 55 37 50 W10 30.04F AUGUSTA SUNNY 53 35 50 CALM 30.03F WATERVILLE MOSUNNY 52 36 54 VRB3 30.01F BANGOR CLOUDY 47 38 71 NW7 30.04F GREENVILLE N/A 41 37 86 VRB5 29.99S MILLINOCKET CLOUDY 43 35 73 NW8 30.04S HOULTON CLOUDY 42 35 76 NW6 30.00R PRESQUE ISLE LGT RAIN 40 35 83 W7 30.00S FRENCHVILLE LGT RAIN 37 31 78 W7 29.96S CARIBOU CLOUDY 42 33 70 W6 29.98S $$ NHZ002-005-008-009-011-012-014-231700- NEW HAMPSHIRE CITY SKY/WX TMP DP RH WIND PRES REMARKS PORTSMOUTH MOSUNNY 56 34 43 SW3 30.05F ROCHESTER SUNNY 56 36 47 SE3 30.05F NASHUA SUNNY 57 37 47 VRB3 30.07F MANCHESTER SUNNY 56 34 43 CALM 30.05F CONCORD SUNNY 57 36 45 CALM 30.06F LACONIA SUNNY 56 33 42 W6 30.06F PLYMOUTH FAIR 57 33 40 W5 30.04F BERLIN SUNNY 52 33 48 MISG 30.02F WHITEFIELD SUNNY 53 34 48 CALM 30.04F JAFFREY SUNNY 57 36 45 CALM 30.07F KEENE SUNNY 55 34 45 VRB3 30.08F LEBANON SUNNY 55 34 45 SE5 30.05F MT WASHINGTON MOSUNNY 32 16 51 NW26 N/A WCI 18 $$ VTZ005-007-008-231700- VERMONT CITY SKY/WX TMP DP RH WIND PRES REMARKS ST JOHNSBURY N/A 52 36 54 MISG 30.03F MONTPELIER SUNNY 53 36 52 NW7 30.09F BURLINGTON MOSUNNY 56 34 43 VRB5 30.08S $$ MAZ007-012-024-CTZ003-RIZ002-NYZ038-NYZ072-231700- SOUTHERN NEW ENGLAND AND NY CITY SKY/WX TMP DP RH WIND PRES REMARKS BOSTON MOSUNNY 51 40 65 SE12 30.09F WORCESTER SUNNY 55 34 45 VRB5 30.07F NANTUCKET MOSUNNY 52 41 66 N10G23 30.10S PROVIDENCE SUNNY 57 39 51 VRB3 30.10S HARTFORD MOSUNNY 59 34 39 VRB5 30.09F ALBANY MOSUNNY 59 35 40 W6 30.11F NEW YORK CITY MOSUNNY 59 37 44 NW3 30.12F $$ ANZ081-ANZ082-ANZ150-NHZ014-MEZ023>029-231700- COASTAL MARINE OBSERVATIONS STATION/POSITION TIME TEMP WIND PRES WAVE AIR SEA DIR/SP/G HT/PER (UTC) (F) (DEG/KT/KT) (MB) (FT/S) MOUNT DESERT ROC 1600 40 1018.1S MATINICUS ROCK 1500 40 240/ 5/ 6 1017.8R ISLE OF SHOALS 1500 49 130/ 2/ 3 1018.7R JEFFREYS LEDGE 1506 44 N/A 5/11 CASHES LEDGE BUO 1450 46 42 1018.4 5/11 GEORGES BANK BUO 1450 42 43 1016.8 8/ 6 $$ .............KEY.............. WCI - WIND CHILL TC - TEMPERATURE IN CELSIUS VSB - VISIBILITY IN MILES HX - HEAT INDEX FAIR- INDICATES FEW OR NO CLOUDS BELOW 12,000 FT, WITH NO SIGNIFICANT WEATHER AND/OR OBSTRUCTIONS TO VISIBILITY.

USA.gov is the U.S. government's official web portal to all federal, state and local government web resources and services.